Preview of NWS' New Version of Forecast
This preview is not operational and should not be used for support decisions.
Latest weather observations around

East Milton (KMQE)

Using English Units (Switch to International System of Units)
Date/ Time (EDT) Wind (mph) Vis. (mi) Weather Sky Cond. Temp (°F) Rel. Humidity Wind Chill (°F) Heat Index (°F) Pressure Precip. (in)
Air Dwpt 6 hour Altimeter (inHg) Sea level (inHg) 1 hr 3 hr 6 hr
Max Min
Mar 21 21:56 E 13   Clear   37 33     85% 29   29.89 29.93      
Mar 21 20:56 E 11   Clear   38 33     82% 30   29.9 29.95      
Mar 21 19:56 E 10   Clear   40 33     76% 33   29.94 29.99      
Mar 21 18:56 SE 13   Clear   43 33     68% 36   29.98 30.02      
Mar 21 17:56 SSE 7   Clear   45 30     56% 41   30.01 30.05      
Mar 21 16:56 SSE 9   Clear   45 25     45% 40   30.01 30.06      
Mar 21 15:56 SSE 10   Clear   46 23     40% 41   30.05 30.09      
Mar 21 14:56 SSE 16   Clear   47 23     39% 40   30.08 30.12      
Mar 21 13:56 S 11   Clear   48 27     44% 43   30.09 30.13      
Mar 21 12:56 SSE 17   Clear   46 25     43% 39   30.12 30.16      
Mar 21 11:56 SSE 11   Clear   46 26     45% 41   30.14 30.18      
Mar 21 10:56 S 10   Clear   44 28     53% 39   30.17 30.22      
Mar 21 09:56 S 18   Clear   42 28     57% 34   30.19 30.23      
Mar 21 08:56 SSE 15   Clear   41 28     60% 33   30.19 30.24      
Mar 21 07:56 SSE 14   Clear   36 28     73% 27   30.2 30.25      
Mar 21 06:56 S 16   Clear   33 27     78% 23   30.22 30.27      
Mar 21 05:56 S 15   Clear   34 28     79% 24   30.22 30.27      
Mar 21 04:56 SSE 15   Clear   32 28     85% 22   30.21 30.25      
Mar 21 03:56 S 16   Clear   33 28     82% 23   30.22 30.27      
Mar 21 02:56 S 15   Clear   34 30     85% 24   30.25 30.29      
Mar 21 01:56 S 15   Clear   34 31     88% 24   30.26 30.3      
Mar 21 00:56 S 15   Clear   34 31     88% 24   30.26 30.31      
Mar 20 23:56 S 15   Clear   35 30     82% 26   30.27 30.32      
Mar 20 22:56 S 15   Clear   36 28     73% 27   30.28 30.33      
Mar 20 21:56 SSW 15   Clear   36 26     67% 27   30.28 30.33      
Mar 20 20:56 S 16   Clear   37 25     61% 28   30.28 30.33      
Mar 20 19:56 S 16   Clear   39 25     57% 30   30.27 30.32      
Mar 20 18:56 S 16   Clear   41 26     55% 33   30.26 30.3      
Mar 20 17:56 S 18   Clear   44 28     53% 36   30.24 30.29      
Mar 20 16:56 S 16   Clear   46 29     51% 39   30.25 30.29      
Mar 20 15:56 S 17   Clear   49 23     36% 43   30.26 30.3      
Mar 20 14:56 S 13   Clear   49 20     31% 44   30.28 30.32      
Mar 20 13:56 S 7   Clear   47 18     31% 44   30.29 30.34      
Mar 20 12:56 WSW 9   Clear   46 18     32% 41   30.33 30.38      
Mar 20 11:56 SW 9   Clear   45 18     34% 40   30.35 30.4      
Mar 20 10:56 S 7   Clear   42 18     37% 38   30.38 30.42      
Mar 20 09:56 3   Clear   37 16     42% 35   30.38 30.44      
Mar 20 08:56 W 3   Clear   35 17     47% 32   30.39 30.44      
Mar 20 07:56 W 6   Clear   31 16     53% 25   30.39 30.44      
Mar 20 06:56 WSW 7   Clear   29 16     58% 22   30.38 30.43      
Mar 20 05:56 NW 7   Clear   28 15     58% 21   30.37 30.42      
Mar 20 04:56 WNW 8   Clear   27 16     63% 19   30.36 30.41      
Mar 20 03:56 NW 8   Clear   28 15     58% 20   30.35 30.4      
Mar 20 02:56 NW 7   Clear   28 13     53% 21   30.36 30.41      
Mar 20 01:56 WNW 6   Clear   28 14     55% 22   30.37 30.42      
Mar 20 00:56 W 6   Clear   29 13     51% 23   30.37 30.42      
Mar 19 23:56 WNW 9   Clear   30 14     51% 22   30.36 30.41      
Mar 19 22:56 W 7   Clear   33 11     39% 27   30.36 30.41      
Mar 19 21:56 NW 5   Clear   33 11     39% 29   30.36 30.41      
Mar 19 20:56 NW 9   Clear   33 12     41% 25   30.35 30.4      
Mar 19 19:56 WNW 8   Clear   33 12     41% 26   30.33 30.39      
Mar 19 18:56 WNW 10   Clear   37 11     34% 30   30.32 30.37      
Mar 19 17:56 W 15   Clear   40 11     30% 32   30.3 30.35      
Mar 19 16:56 WNW 14   Clear   40 12     31% 32   30.29 30.34      
Mar 19 15:56 WNW 9   Clear   41 12     30% 35   30.29 30.34      
Mar 19 14:56 WNW 14   Clear   43 13     29% 36   30.3 30.35      
Mar 19 13:56 W 10   Clear   40 12     31% 33   30.31 30.36      
Mar 19 12:56 NW 10   Clear   37 14     38% 30   30.32 30.37      
Mar 19 11:56 6   Clear   39 17     41% 35   30.33 30.38      
Mar 19 10:56 NW 8   Clear   37 18     46% 31   30.34 30.39      
Mar 19 09:56 WNW 8   Clear   34 20     56% 27   30.34 30.39      
Mar 19 08:56 WNW 7   Clear   31 20     63% 24   30.33 30.38      
Mar 19 07:56 W 10   Clear   26 17     68% 16   30.32 30.37      
Mar 19 06:56 W 11   Clear   25 16     68% 14   30.3 30.35      
Mar 19 05:56 WSW 8   Clear   25 13     60% 16   30.28 30.34      
Mar 19 04:56 WNW 10   Clear   26 14     60% 16   30.27 30.32      
Mar 19 03:56 WNW 11   Clear   27 13     55% 17   30.26 30.31      
Mar 19 02:56 W 11   Clear   28 12     51% 18   30.27 30.32      
Mar 19 01:56 W 10   Clear   29 9     42% 20   30.27 30.32      
Mar 19 00:56 W 10   Clear   29 9     42% 20   30.26 30.31      
Mar 18 23:56 W 9   Clear   30 8     39% 22   30.26 30.32      
Mar 18 22:56 WNW 10   Clear   29 9     42% 20   30.27 30.32      
May 15 04:56 SSW 14   Clear   54 54     100%     29.85 29.88      
May 14 20:56 S 11   Clear   58 52     81%     29.88 29.91      
May 13 23:56 S 10   Clear   47 46     97% 42   30.06 30.1      
May 12 16:56 NNE 8   Clear   47 47     100% 43   30.1 30.13 0 0  
May 12 02:56 NE 10   Clear   50 39     66% 46   30.15 30.18      
Jun 11 15:56 SW 18   Clear   88 58     36%   87 29.93 29.94      
Notice The following observation data may not be complete
Jun 09 13:56 WNW 15   Clear     49      %     29.63 29.65      
Notice The following observation data may not be complete
Jun 09 08:56     Clear            %              
Jun 08 21:56 SE 7   Clear   57 40     53%     29.87 29.89      
Jun 08 14:56 SE 9   Clear   73 42     33%   72 29.97 30      
Jun 08 13:56 S 9   Clear   76 44     32%   75 29.99 30.01      
Jun 08 08:56 3   Clear   65 48     54%     30.04 30.07      
Jun 07 22:56 S 10   Clear   56 38     51%     30.02 30.04      
Jun 07 19:56 ESE 7   Clear   60 41     49%     29.99 30.02      
Jun 07 14:56 NE 11   Clear   64 42     45%     29.95 29.98      
Jun 07 11:56 7   Clear   61 50     67%     29.96 29.99      
Jun 06 03:56 NE 17   Clear   49 48     97% 43   29.75 29.79 0    
Jun 05 18:56 ENE 17   Clear   51 50     96%     29.81 29.85 0